STARLINK-32443, 61672

Orbit data source: Space-Track

STARLINK-32443, 61672 is a payload satellite owned by SpaceX/Seattle (US) in LEO that was launched on Sat, 26 Oct 2024 UTC via an FALCON 9 launch vehicle from the Air Force Eastern Test Range (AFETR). Payload-class satellites include a variety of spacecraft equipped with specific instruments for various scientific and technological missions. These include communications satellites like Starlink; space stations such as the ISS; scientific satellites like the Hubble; Earth observation satellites from companies like Planet Labs, Umbra, and HawkEye 360; GPS; miniature CubeSats for education and research; and military/defense satellites.

Loading next visibility...
Identifier
61672, 2024-193M
Orbit
LEO
Country
Flag of USUS
Related business
Manufacturer
SpaceX/Seattle
Mission
Operational Commercial Communications
Bus & Motor
STARLINK V2M, Unknown motor
Mass
730 kg wet, ~700 kg dry
Launch date (UTC)
2024-10-26 (2 years ago)
Launch vehicle
FALCON 9
Launch site
Air Force Eastern Test Range (AFETR)
Object type
Payload
Rocket body
Debris
Shape & HBR
Box + 2 Pan, 17.7 m
Radar Cross Section
33.884 m², Large (>1 m²)

Expand to show TLE details & history
Last TLE update: 12 hours ago

TLE from 12 hours ago
0 STARLINK-32443
1 61672U 24193M   26125.41773204  .00000387  00000-0  25177-4 0  9999
2 61672  53.1605 187.3911 0001052  98.4504 261.6616 15.30194819 85217
Epoch: 2026-05-05T10:01Z
TLE epoch observation values (Epoch: 2026-05-05T10:01:32.048Z)
Latitude
-0.00001°
Longitude
173.71469°
Altitude
476.235 km
Speed
7.629 km/s
True Right ascension
12h 29m 33s
True Declination
0° 00' 00"
Sunlit
Object was in full shadow at epoch
Visualization orbit readout
Latitude
Unknown
Longitude
Unknown
Altitude
Unknown
Speed
Unknown
Apparent Right ascension
Unknown
Apparent Declination
Unknown
Sunlit
N/A
Visualization observer readout
Local Sidereal Time
06:10:15
Azimuth
Unknown
Elevation
Unknown
Doppler factor
Unknown
Orbital elements
Apogee altitude
476.208 km
Perigee altitude
474.766 km
Semi-major axis
6,853.624 km
Eccentricity
0.00011
Inclination
53.1605°
RAAN
187.3911°
Arg. of periapsis
98.4504°
True anomaly
261.64967°
Mean anomaly
261.6616°
Eccentric anomaly
261.65564°
Mean motion
3.82528 °/min
Orbital period
94.11 mins
BSTAR
0.000025177
Loading maneuver chart data...
Computing Atmospheric mass density...
Loading historical data...
Loading historical data...
Loading historical data...
Loading historical data...
Loading historical data...
Loading historical data...
Loading historical data...

Documentation

Showing up to 5 results
|